Simultaneous Nadir Overpasses (SNOs) Predictions

Prediction of SNOs between LANDSAT-8 and METOP-A Satellite Orbit:

Table of predicted SNOs for the next 14.0 days since TLE Epoch: 12/28/2019
Index Date (LANDSAT-8) Time (LANDSAT-8) Lat,Lon (LANDSAT-8) SZA (LANDSAT-8 ) Date (METOP-A) Time (METOP-A) Lat,Lon (METOP-A) SZA (METOP-A ) Distance(km) Time Diff (sec)
1 12/30/2019 15:58:09 81.47, -13.30 107.03 12/30/2019 15:57:31 81.48, -13.25 107.03 1.43 38
2 12/30/2019 16:47:36 -81.47, 154.28 72.98 12/30/2019 16:48:11 -81.48, 154.46 72.94 3.17 35
3 01/02/2020 11:32:22 81.48, 53.26 106.80 01/02/2020 11:31:53 81.48, 53.08 106.77 3.00 29
4 01/02/2020 12:21:49 -81.48,-139.13 73.21 01/02/2020 12:22:33 -81.48,-139.18 73.20 0.83 44
5 01/05/2020 07:06:36 81.48, 119.79 106.50 01/05/2020 07:06:15 81.48, 119.80 106.49 0.19 21
6 01/05/2020 07:56:03 -81.48, -72.57 73.51 01/05/2020 07:56:55 -81.48, -72.44 73.47 2.36 52
7 01/08/2020 02:40:50 81.49,-173.70 106.15 01/08/2020 02:40:37 81.48,-173.50 106.15 3.32 13
8 01/08/2020 03:30:17 -81.49, -6.04 73.86 01/08/2020 03:31:18 -81.48, -6.11 73.85 1.50 61
9 01/10/2020 22:15:03 81.49,-107.21 105.73 01/10/2020 22:14:59 81.48,-107.22 105.72 1.00 4




NCC Satellite Simultaneous Nadir Overpasses (SNOs) Prediction Service
